Time,TemperatureF,DewpointF,PressureIn,WindDirection,WindDirectionDegrees,WindSpeedMPH,WindSpeedGustMPH,Humidity,HourlyPrecipIn,Conditions,Clouds,dailyrainin,SoftwareType,DateUTC
2013-04-07 00:00:00,52.0,19.0,29.91,South,173,4.0,-999.0,27,0.00,,,0.00,Wunderground v.1.15,2013-04-07 04:00:00,
2013-04-07 00:01:00,52.0,18.1,29.91,South,169,4.0,-999.0,26,0.00,,,0.00,Wunderground v.1.15,2013-04-07 04:01:00,
2013-04-07 00:02:00,52.0,18.1,29.91,South,175,4.0,-999.0,26,0.00,,,0.00,Wunderground v.1.15,2013-04-07 04:02:00,
2013-04-07 00:04:00,52.0,17.2,29.91,South,175,4.0,-999.0,25,0.00,,,0.00,Wunderground v.1.15,2013-04-07 04:04:00,
2013-04-07 00:09:00,52.0,18.1,29.90,South,175,3.0,-999.0,26,0.00,,,0.00,Wunderground v.1.15,2013-04-07 04:09:00,
2013-04-07 00:15:00,51.7,18.7,29.90,South,184,4.0,-999.0,27,0.00,,,0.00,Wunderground v.1.15,2013-04-07 04:15:00,
2013-04-07 00:20:00,51.4,19.3,29.90,South,184,3.0,-999.0,28,0.00,,,0.00,Wunderground v.1.15,2013-04-07 04:20:00,
2013-04-07 00:27:00,51.0,19.0,29.90,South,184,1.0,-999.0,28,0.00,,,0.00,Wunderground v.1.15,2013-04-07 04:27:00,
2013-04-07 00:32:00,51.0,19.8,29.90,South,184,1.0,-999.0,29,0.00,,,0.00,Wunderground v.1.15,2013-04-07 04:32:00,
2013-04-07 00:38:00,50.8,19.6,29.90,South,184,0.0,-999.0,29,0.00,,,0.00,Wunderground v.1.15,2013-04-07 04:38:00,
2013-04-07 00:44:00,50.5,19.4,29.90,South,184,0.0,-999.0,29,0.00,,,0.00,Wunderground v.1.15,2013-04-07 04:44:00,
2013-04-07 00:49:00,50.3,20.0,29.90,South,184,0.0,-999.0,30,0.00,,,0.00,Wunderground v.1.15,2013-04-07 04:49:00,
2013-04-07 00:54:00,50.2,19.9,29.90,South,184,0.0,-999.0,30,0.00,,,0.00,Wunderground v.1.15,2013-04-07 04:54:00,
2013-04-07 01:00:00,50.1,19.8,29.89,South,184,1.0,-999.0,30,0.00,,,0.00,Wunderground v.1.15,2013-04-07 05:00:00,
2013-04-07 01:05:00,50.4,19.3,29.89,SSE,167,2.0,-999.0,29,0.00,,,0.00,Wunderground v.1.15,2013-04-07 05:05:00,
2013-04-07 01:11:00,51.2,19.2,29.89,SSE,159,2.0,-999.0,28,0.00,,,0.00,Wunderground v.1.15,2013-04-07 05:11:00,
2013-04-07 01:15:00,51.7,18.7,29.89,SSE,155,3.0,-999.0,27,0.00,,,0.00,Wunderground v.1.15,2013-04-07 05:15:00,
2013-04-07 01:21:00,52.0,19.9,29.89,SSE,152,3.0,-999.0,28,0.00,,,0.00,Wunderground v.1.15,2013-04-07 05:21:00,
2013-04-07 01:26:00,51.8,19.7,29.88,SSE,152,2.0,-999.0,28,0.00,,,0.00,Wunderground v.1.15,2013-04-07 05:26:00,
2013-04-07 01:31:00,51.5,19.4,29.88,SSE,152,1.0,-999.0,28,0.00,,,0.00,Wunderground v.1.15,2013-04-07 05:31:00,
2013-04-07 01:38:00,51.1,20.7,29.88,SSE,152,2.0,-999.0,30,0.00,,,0.00,Wunderground v.1.15,2013-04-07 05:38:00,
2013-04-07 01:43:00,51.0,20.6,29.88,SSE,152,2.0,-999.0,30,0.00,,,0.00,Wunderground v.1.15,2013-04-07 05:43:00,
2013-04-07 01:48:00,50.5,20.9,29.88,SSE,152,2.0,-999.0,31,0.00,,,0.00,Wunderground v.1.15,2013-04-07 05:48:00,
2013-04-07 01:54:00,50.0,20.5,29.87,SSE,152,1.0,-999.0,31,0.00,,,0.00,Wunderground v.1.15,2013-04-07 05:54:00,
2013-04-07 01:59:00,49.8,20.3,29.87,SSE,159,1.0,-999.0,31,0.00,,,0.00,Wunderground v.1.15,2013-04-07 05:59:00,
2013-04-07 02:04:00,50.0,21.3,29.87,South,173,2.0,-999.0,32,0.00,,,0.00,Wunderground v.1.15,2013-04-07 06:04:00,
2013-04-07 02:10:00,50.6,21.8,29.86,South,173,2.0,-999.0,32,0.00,,,0.00,Wunderground v.1.15,2013-04-07 06:10:00,
2013-04-07 02:17:00,51.2,24.5,29.86,South,185,3.0,-999.0,35,0.00,,,0.00,Wunderground v.1.15,2013-04-07 06:17:00,
2013-04-07 02:22:00,52.7,26.5,29.85,South,186,5.0,-999.0,36,0.00,,,0.00,Wunderground v.1.15,2013-04-07 06:22:00,
2013-04-07 02:28:00,54.3,27.2,29.85,SSW,212,6.0,-999.0,35,0.00,,,0.00,Wunderground v.1.15,2013-04-07 06:28:00,
2013-04-07 02:34:00,55.6,26.9,29.85,South,179,7.0,-999.0,33,0.00,,,0.00,Wunderground v.1.15,2013-04-07 06:34:00,
2013-04-07 02:39:00,55.8,27.8,29.85,South,175,7.0,-999.0,34,0.00,,,0.00,Wunderground v.1.15,2013-04-07 06:39:00,
2013-04-07 02:45:00,56.1,27.4,29.85,SW,216,6.0,-999.0,33,0.00,,,0.00,Wunderground v.1.15,2013-04-07 06:45:00,
2013-04-07 02:50:00,56.6,27.8,29.85,SSW,212,8.0,-999.0,33,0.00,,,0.00,Wunderground v.1.15,2013-04-07 06:50:00,
2013-04-07 02:56:00,56.9,28.8,29.84,South,188,8.0,-999.0,34,0.00,,,0.00,Wunderground v.1.15,2013-04-07 06:56:00,
2013-04-07 03:02:00,57.2,29.1,29.84,SSW,193,8.0,-999.0,34,0.00,,,0.00,Wunderground v.1.15,2013-04-07 07:02:00,
2013-04-07 03:09:00,57.2,29.1,29.84,SSW,213,8.0,-999.0,34,0.00,,,0.00,Wunderground v.1.15,2013-04-07 07:09:00,
2013-04-07 03:14:00,57.3,29.1,29.84,South,182,8.0,-999.0,34,0.00,,,0.00,Wunderground v.1.15,2013-04-07 07:14:00,
2013-04-07 03:19:00,57.3,29.9,29.84,South,181,7.0,-999.0,35,0.00,,,0.00,Wunderground v.1.15,2013-04-07 07:19:00,
2013-04-07 03:25:00,57.3,29.9,29.84,SW,217,8.0,-999.0,35,0.00,,,0.00,Wunderground v.1.15,2013-04-07 07:25:00,
2013-04-07 03:30:00,57.3,29.9,29.84,SSW,198,7.0,-999.0,35,0.00,,,0.00,Wunderground v.1.15,2013-04-07 07:30:00,
2013-04-07 03:36:00,57.5,30.7,29.84,SSW,194,8.0,-999.0,36,0.00,,,0.00,Wunderground v.1.15,2013-04-07 07:36:00,
2013-04-07 03:41:00,57.4,30.6,29.84,SSW,199,8.0,-999.0,36,0.00,,,0.00,Wunderground v.1.15,2013-04-07 07:41:00,
2013-04-07 03:46:00,57.5,31.4,29.83,SW,214,8.0,-999.0,37,0.00,,,0.00,Wunderground v.1.15,2013-04-07 07:46:00,
2013-04-07 03:52:00,57.5,31.4,29.83,SW,217,8.0,-999.0,37,0.00,,,0.00,Wunderground v.1.15,2013-04-07 07:52:00,
2013-04-07 03:57:00,57.8,32.3,29.83,SSW,212,8.0,-999.0,38,0.00,,,0.00,Wunderground v.1.15,2013-04-07 07:57:00,
2013-04-07 04:02:00,58.0,32.5,29.83,SW,233,8.0,-999.0,38,0.00,,,0.00,Wunderground v.1.15,2013-04-07 08:02:00,
2013-04-07 04:09:00,58.2,32.7,29.83,SSW,204,8.0,-999.0,38,0.00,,,0.00,Wunderground v.1.15,2013-04-07 08:09:00,
2013-04-07 04:14:00,58.2,32.7,29.83,SSW,211,9.0,-999.0,38,0.00,,,0.00,Wunderground v.1.15,2013-04-07 08:14:00,
2013-04-07 04:19:00,58.2,33.3,29.83,SSE,165,8.0,-999.0,39,0.00,,,0.00,Wunderground v.1.15,2013-04-07 08:19:00,
2013-04-07 04:25:00,58.2,33.3,29.83,SSW,207,8.0,-999.0,39,0.00,,,0.00,Wunderground v.1.15,2013-04-07 08:25:00,
2013-04-07 04:30:00,58.3,34.1,29.82,South,186,8.0,-999.0,40,0.00,,,0.00,Wunderground v.1.15,2013-04-07 08:30:00,
2013-04-07 04:35:00,58.4,34.2,29.82,South,182,9.0,-999.0,40,0.00,,,0.00,Wunderground v.1.15,2013-04-07 08:35:00,
2013-04-07 04:40:00,58.4,34.2,29.82,South,185,9.0,-999.0,40,0.00,,,0.00,Wunderground v.1.15,2013-04-07 08:40:00,
2013-04-07 04:45:00,58.5,34.2,29.81,SSW,205,9.0,-999.0,40,0.00,,,0.00,Wunderground v.1.15,2013-04-07 08:45:00,
2013-04-07 04:52:00,58.5,34.9,29.81,South,188,10.0,-999.0,41,0.00,,,0.00,Wunderground v.1.15,2013-04-07 08:52:00,
2013-04-07 04:57:00,58.4,34.8,29.82,South,184,10.0,-999.0,41,0.00,,,0.00,Wunderground v.1.15,2013-04-07 08:57:00,
2013-04-07 05:03:00,58.2,34.6,29.81,SSW,207,10.0,-999.0,41,0.00,,,0.00,Wunderground v.1.15,2013-04-07 09:03:00,
2013-04-07 05:09:00,58.2,35.2,29.81,South,190,10.0,-999.0,42,0.00,,,0.00,Wunderground v.1.15,2013-04-07 09:09:00,
2013-04-07 05:14:00,58.1,35.1,29.81,South,181,10.0,-999.0,42,0.00,,,0.00,Wunderground v.1.15,2013-04-07 09:14:00,
2013-04-07 05:19:00,58.0,35.0,29.81,South,188,10.0,-999.0,42,0.00,,,0.00,Wunderground v.1.15,2013-04-07 09:19:00,
2013-04-07 05:25:00,58.0,35.6,29.81,SSW,199,9.0,-999.0,43,0.00,,,0.00,Wunderground v.1.15,2013-04-07 09:25:00,
2013-04-07 05:30:00,57.8,35.4,29.81,SSW,209,9.0,-999.0,43,0.00,,,0.00,Wunderground v.1.15,2013-04-07 09:30:00,
2013-04-07 05:36:00,57.8,35.4,29.81,South,188,9.0,-999.0,43,0.00,,,0.00,Wunderground v.1.15,2013-04-07 09:36:00,
2013-04-07 05:42:00,57.5,35.7,29.81,SSW,196,9.0,-999.0,44,0.00,,,0.00,Wunderground v.1.15,2013-04-07 09:42:00,
2013-04-07 05:47:00,57.5,35.7,29.81,SSW,199,9.0,-999.0,44,0.00,,,0.00,Wunderground v.1.15,2013-04-07 09:47:00,
2013-04-07 05:53:00,57.6,35.8,29.81,SSW,201,9.0,-999.0,44,0.00,,,0.00,Wunderground v.1.15,2013-04-07 09:53:00,
2013-04-07 05:59:00,57.6,36.4,29.80,South,186,10.0,-999.0,45,0.00,,,0.00,Wunderground v.1.15,2013-04-07 09:59:00,
2013-04-07 06:04:00,57.5,36.3,29.80,SSW,204,9.0,-999.0,45,0.00,,,0.00,Wunderground v.1.15,2013-04-07 10:04:00,
2013-04-07 06:10:00,57.5,36.3,29.80,SSW,207,9.0,-999.0,45,0.00,,,0.00,Wunderground v.1.15,2013-04-07 10:10:00,
2013-04-07 06:16:00,57.4,36.2,29.80,SSW,213,9.0,-999.0,45,0.00,,,0.00,Wunderground v.1.15,2013-04-07 10:16:00,
2013-04-07 06:21:00,57.4,36.8,29.80,SW,232,9.0,-999.0,46,0.00,,,0.00,Wunderground v.1.15,2013-04-07 10:21:00,
2013-04-07 06:27:00,57.2,36.6,29.80,SSW,203,8.0,-999.0,46,0.00,,,0.00,Wunderground v.1.15,2013-04-07 10:27:00,
2013-04-07 06:32:00,57.3,36.7,29.80,SSW,212,9.0,-999.0,46,0.00,,,0.00,Wunderground v.1.15,2013-04-07 10:32:00,
2013-04-07 06:37:00,57.4,36.8,29.80,SW,215,10.0,-999.0,46,0.00,,,0.00,Wunderground v.1.15,2013-04-07 10:37:00,
2013-04-07 06:43:00,57.4,36.8,29.81,SSW,195,10.0,-999.0,46,0.00,,,0.00,Wunderground v.1.15,2013-04-07 10:43:00,
2013-04-07 06:49:00,57.1,37.0,29.80,SSW,209,9.0,-999.0,47,0.00,,,0.00,Wunderground v.1.15,2013-04-07 10:49:00,
2013-04-07 06:54:00,57.1,37.0,29.80,SSW,196,9.0,-999.0,47,0.00,,,0.00,Wunderground v.1.15,2013-04-07 10:54:00,
2013-04-07 06:59:00,57.0,37.0,29.80,SSW,204,8.0,-999.0,47,0.00,,,0.00,Wunderground v.1.15,2013-04-07 10:59:00,
2013-04-07 07:04:00,57.0,37.0,29.80,SSW,202,9.0,-999.0,47,0.00,,,0.00,Wunderground v.1.15,2013-04-07 11:04:00,
2013-04-07 07:09:00,57.2,37.1,29.80,SW,222,8.0,-999.0,47,0.00,,,0.00,Wunderground v.1.15,2013-04-07 11:09:00,
2013-04-07 07:15:00,57.2,37.7,29.81,South,187,7.0,-999.0,48,0.00,,,0.00,Wunderground v.1.15,2013-04-07 11:15:00,
2013-04-07 07:21:00,57.4,37.3,29.81,SW,222,8.0,-999.0,47,0.00,,,0.00,Wunderground v.1.15,2013-04-07 11:21:00,
2013-04-07 07:26:00,57.7,37.6,29.81,South,178,10.0,-999.0,47,0.00,,,0.00,Wunderground v.1.15,2013-04-07 11:26:00,
2013-04-07 07:31:00,57.8,37.7,29.81,SSW,205,9.0,-999.0,47,0.00,,,0.00,Wunderground v.1.15,2013-04-07 11:31:00,
2013-04-07 07:37:00,58.0,37.9,29.81,SSW,199,7.0,-999.0,47,0.00,,,0.00,Wunderground v.1.15,2013-04-07 11:37:00,
2013-04-07 07:42:00,58.1,38.0,29.81,SW,214,7.0,-999.0,47,0.00,,,0.00,Wunderground v.1.15,2013-04-07 11:42:00,
2013-04-07 07:47:00,58.2,38.1,29.81,SSW,200,8.0,-999.0,47,0.00,,,0.00,Wunderground v.1.15,2013-04-07 11:47:00,
2013-04-07 07:52:00,58.2,38.1,29.81,SW,217,9.0,-999.0,47,0.00,,,0.00,Wunderground v.1.15,2013-04-07 11:52:00,
2013-04-07 07:58:00,58.3,38.1,29.81,SW,216,8.0,-999.0,47,0.00,,,0.00,Wunderground v.1.15,2013-04-07 11:58:00,
2013-04-07 08:04:00,58.3,38.1,29.81,SW,236,8.0,-999.0,47,0.00,,,0.00,Wunderground v.1.15,2013-04-07 12:04:00,
2013-04-07 08:09:00,58.4,38.2,29.81,SSW,202,9.0,-999.0,47,0.00,,,0.00,Wunderground v.1.15,2013-04-07 12:09:00,
2013-04-07 08:15:00,58.4,38.2,29.81,SSE,165,9.0,-999.0,47,0.00,,,0.00,Wunderground v.1.15,2013-04-07 12:15:00,
2013-04-07 08:22:00,58.5,38.3,29.81,South,180,8.0,-999.0,47,0.00,,,0.00,Wunderground v.1.15,2013-04-07 12:22:00,
2013-04-07 08:27:00,58.8,38.6,29.81,SSW,196,8.0,-999.0,47,0.00,,,0.00,Wunderground v.1.15,2013-04-07 12:27:00,
2013-04-07 08:33:00,59.2,39.0,29.81,SW,222,9.0,-999.0,47,0.00,,,0.00,Wunderground v.1.15,2013-04-07 12:33:00,
2013-04-07 08:39:00,59.8,39.0,29.81,SW,217,9.0,-999.0,46,0.00,,,0.00,Wunderground v.1.15,2013-04-07 12:39:00,
2013-04-07 08:45:00,60.1,39.2,29.81,South,182,9.0,-999.0,46,0.00,,,0.00,Wunderground v.1.15,2013-04-07 12:45:00,
2013-04-07 08:50:00,60.2,39.3,29.81,SSW,210,10.0,-999.0,46,0.00,,,0.00,Wunderground v.1.15,2013-04-07 12:50:00,
2013-04-07 08:56:00,60.3,39.4,29.81,SSW,198,9.0,-999.0,46,0.00,,,0.00,Wunderground v.1.15,2013-04-07 12:56:00,
2013-04-07 09:02:00,60.3,39.4,29.81,SSW,204,8.0,-999.0,46,0.00,,,0.00,Wunderground v.1.15,2013-04-07 13:02:00,
2013-04-07 09:07:00,60.3,39.4,29.81,SSW,204,9.0,-999.0,46,0.00,,,0.00,Wunderground v.1.15,2013-04-07 13:07:00,
2013-04-07 09:12:00,60.4,39.5,29.81,SSW,205,9.0,-999.0,46,0.00,,,0.00,Wunderground v.1.15,2013-04-07 13:12:00,
2013-04-07 09:18:00,60.5,39.6,29.81,SW,219,9.0,-999.0,46,0.00,,,0.00,Wunderground v.1.15,2013-04-07 13:18:00,
2013-04-07 09:24:00,60.7,39.8,29.80,SSW,202,9.0,-999.0,46,0.00,,,0.00,Wunderground v.1.15,2013-04-07 13:24:00,
2013-04-07 09:29:00,60.9,40.0,29.80,South,171,9.0,-999.0,46,0.00,,,0.00,Wunderground v.1.15,2013-04-07 13:29:00,
2013-04-07 09:34:00,61.4,40.4,29.80,SW,231,9.0,-999.0,46,0.00,,,0.00,Wunderground v.1.15,2013-04-07 13:34:00,
2013-04-07 09:40:00,62.3,41.8,29.80,SSW,204,8.0,-999.0,47,0.00,,,0.00,Wunderground v.1.15,2013-04-07 13:40:00,
2013-04-07 09:45:00,62.2,40.6,29.80,West,266,9.0,-999.0,45,0.00,,,0.00,Wunderground v.1.15,2013-04-07 13:45:00,
2013-04-07 09:50:00,62.0,41.0,29.81,NW,309,9.0,-999.0,46,0.00,,,0.00,Wunderground v.1.15,2013-04-07 13:50:00,
2013-04-07 09:57:00,62.0,41.5,29.80,SSW,211,8.0,-999.0,47,0.00,,,0.00,Wunderground v.1.15,2013-04-07 13:57:00,
2013-04-07 10:02:00,62.0,41.0,29.80,SSW,202,8.0,-999.0,46,0.00,,,0.00,Wunderground v.1.15,2013-04-07 14:02:00,
2013-04-07 10:07:00,62.0,41.5,29.80,SSW,197,8.0,-999.0,47,0.00,,,0.00,Wunderground v.1.15,2013-04-07 14:07:00,
2013-04-07 10:12:00,62.0,41.0,29.80,SW,216,8.0,-999.0,46,0.00,,,0.00,Wunderground v.1.15,2013-04-07 14:12:00,
2013-04-07 10:19:00,62.1,41.6,29.81,SW,224,9.0,-999.0,47,0.00,,,0.00,Wunderground v.1.15,2013-04-07 14:19:00,
2013-04-07 10:24:00,62.1,41.1,29.81,WSW,242,10.0,-999.0,46,0.00,,,0.00,Wunderground v.1.15,2013-04-07 14:24:00,
2013-04-07 10:30:00,62.2,41.7,29.81,SW,222,10.0,-999.0,47,0.00,,,0.00,Wunderground v.1.15,2013-04-07 14:30:00,
2013-04-07 10:36:00,62.3,41.8,29.81,SW,227,10.0,-999.0,47,0.00,,,0.00,Wunderground v.1.15,2013-04-07 14:36:00,
2013-04-07 10:42:00,62.5,42.0,29.81,WSW,246,10.0,-999.0,47,0.00,,,0.00,Wunderground v.1.15,2013-04-07 14:42:00,
2013-04-07 10:46:00,62.8,42.8,29.81,WNW,283,10.0,-999.0,48,0.00,,,0.00,Wunderground v.1.15,2013-04-07 14:46:00,
2013-04-07 10:52:00,63.0,42.4,29.81,WSW,246,8.0,-999.0,47,0.00,,,0.00,Wunderground v.1.15,2013-04-07 14:52:00,
2013-04-07 10:58:00,63.0,43.0,29.81,NW,312,8.0,-999.0,48,0.00,,,0.00,Wunderground v.1.15,2013-04-07 14:58:00,
2013-04-07 11:03:00,63.0,43.0,29.82,SW,215,8.0,-999.0,48,0.00,,,0.00,Wunderground v.1.15,2013-04-07 15:03:00,
2013-04-07 11:09:00,63.0,44.1,29.82,SSW,208,9.0,-999.0,50,0.00,,,0.00,Wunderground v.1.15,2013-04-07 15:09:00,
2013-04-07 11:14:00,63.8,44.8,29.82,WSW,248,8.0,-999.0,50,0.00,,,0.00,Wunderground v.1.15,2013-04-07 15:14:00,
2013-04-07 11:19:00,64.4,44.3,29.82,SW,227,8.0,-999.0,48,0.00,,,0.00,Wunderground v.1.15,2013-04-07 15:19:00,
2013-04-07 11:25:00,64.5,44.4,29.82,WSW,256,10.0,-999.0,48,0.00,,,0.00,Wunderground v.1.15,2013-04-07 15:25:00,
2013-04-07 11:31:00,65.2,45.0,29.82,WSW,242,10.0,-999.0,48,0.00,,,0.00,Wunderground v.1.15,2013-04-07 15:31:00,
2013-04-07 11:36:00,65.9,45.1,29.82,SW,229,9.0,-999.0,47,0.00,,,0.00,Wunderground v.1.15,2013-04-07 15:36:00,
2013-04-07 11:42:00,66.4,45.0,29.81,WSW,241,9.0,-999.0,46,0.00,,,0.00,Wunderground v.1.15,2013-04-07 15:42:00,
2013-04-07 11:47:00,66.5,45.1,29.81,SSW,211,10.0,-999.0,46,0.00,,,0.00,Wunderground v.1.15,2013-04-07 15:47:00,
2013-04-07 11:54:00,67.1,45.0,29.82,WSW,244,9.0,-999.0,45,0.00,,,0.00,Wunderground v.1.15,2013-04-07 15:54:00,
2013-04-07 11:59:00,66.7,44.7,29.81,SW,220,9.0,-999.0,45,0.00,,,0.00,Wunderground v.1.15,2013-04-07 15:59:00,
2013-04-07 12:04:00,66.3,45.5,29.81,SW,221,10.0,-999.0,47,0.00,,,0.00,Wunderground v.1.15,2013-04-07 16:04:00,
2013-04-07 12:10:00,66.6,45.2,29.81,SW,230,11.0,-999.0,46,0.00,,,0.00,Wunderground v.1.15,2013-04-07 16:10:00,
2013-04-07 12:16:00,67.1,45.6,29.81,WSW,244,10.0,-999.0,46,0.00,,,0.00,Wunderground v.1.15,2013-04-07 16:16:00,
2013-04-07 12:21:00,67.4,44.7,29.81,West,261,10.0,-999.0,44,0.00,,,0.00,Wunderground v.1.15,2013-04-07 16:21:00,
2013-04-07 12:27:00,68.1,46.5,29.81,SSW,205,9.0,-999.0,46,0.00,,,0.00,Wunderground v.1.15,2013-04-07 16:27:00,
2013-04-07 12:32:00,68.6,45.8,29.81,West,259,9.0,-999.0,44,0.00,,,0.00,Wunderground v.1.15,2013-04-07 16:32:00,
2013-04-07 12:39:00,68.5,46.3,29.81,WNW,286,10.0,-999.0,45,0.00,,,0.00,Wunderground v.1.15,2013-04-07 16:39:00,
2013-04-07 12:44:00,68.4,46.8,29.81,SW,232,10.0,-999.0,46,0.00,,,0.00,Wunderground v.1.15,2013-04-07 16:44:00,
2013-04-07 12:50:00,69.3,47.0,29.81,West,265,9.0,-999.0,45,0.00,,,0.00,Wunderground v.1.15,2013-04-07 16:50:00,
2013-04-07 12:55:00,69.1,46.3,29.81,WSW,244,10.0,-999.0,44,0.00,,,0.00,Wunderground v.1.15,2013-04-07 16:55:00,
2013-04-07 13:01:00,68.7,46.5,29.81,SSW,212,11.0,-999.0,45,0.00,,,0.00,Wunderground v.1.15,2013-04-07 17:01:00,
2013-04-07 13:06:00,69.3,47.6,29.81,SW,232,9.0,-999.0,46,0.00,,,0.00,Wunderground v.1.15,2013-04-07 17:06:00,
2013-04-07 13:12:00,69.3,46.4,29.81,West,265,9.0,-999.0,44,0.00,,,0.00,Wunderground v.1.15,2013-04-07 17:12:00,
2013-04-07 13:18:00,69.7,46.8,29.81,SW,234,9.0,-999.0,44,0.00,,,0.00,Wunderground v.1.15,2013-04-07 17:18:00,
2013-04-07 13:24:00,70.3,47.3,29.80,SW,235,9.0,-999.0,44,0.00,,,0.00,Wunderground v.1.15,2013-04-07 17:24:00,
2013-04-07 13:30:00,70.1,46.6,29.80,SW,226,9.0,-999.0,43,0.00,,,0.00,Wunderground v.1.15,2013-04-07 17:30:00,
2013-04-07 13:35:00,69.8,46.9,29.81,WSW,248,11.0,-999.0,44,0.00,,,0.00,Wunderground v.1.15,2013-04-07 17:35:00,
2013-04-07 13:40:00,70.3,47.9,29.81,West,267,9.0,-999.0,45,0.00,,,0.00,Wunderground v.1.15,2013-04-07 17:40:00,
2013-04-07 13:46:00,70.6,47.6,29.81,SW,232,8.0,-999.0,44,0.00,,,0.00,Wunderground v.1.15,2013-04-07 17:46:00,
2013-04-07 13:52:00,70.4,47.4,29.81,SW,217,9.0,-999.0,44,0.00,,,0.00,Wunderground v.1.15,2013-04-07 17:52:00,
2013-04-07 13:58:00,71.0,48.0,29.80,South,191,8.0,-999.0,44,0.00,,,0.00,Wunderground v.1.15,2013-04-07 17:58:00,
2013-04-07 14:04:00,71.2,47.6,29.80,SW,214,8.0,-999.0,43,0.00,,,0.00,Wunderground v.1.15,2013-04-07 18:04:00,
2013-04-07 14:10:00,71.5,48.4,29.80,SW,230,9.0,-999.0,44,0.00,,,0.00,Wunderground v.1.15,2013-04-07 18:10:00,
2013-04-07 14:16:00,71.6,47.3,29.80,SSW,201,9.0,-999.0,42,0.00,,,0.00,Wunderground v.1.15,2013-04-07 18:16:00,
2013-04-07 14:21:00,71.9,46.9,29.80,West,271,10.0,-999.0,41,0.00,,,0.00,Wunderground v.1.15,2013-04-07 18:21:00,
2013-04-07 14:26:00,71.9,46.3,29.80,WSW,258,9.0,-999.0,40,0.00,,,0.00,Wunderground v.1.15,2013-04-07 18:26:00,
2013-04-07 14:31:00,72.4,46.7,29.80,South,188,10.0,-999.0,40,0.00,,,0.00,Wunderground v.1.15,2013-04-07 18:31:00,
2013-04-07 14:36:00,72.2,45.2,29.80,SW,227,10.0,-999.0,38,0.00,,,0.00,Wunderground v.1.15,2013-04-07 18:36:00,
2013-04-07 14:42:00,71.7,44.7,29.80,West,259,10.0,-999.0,38,0.00,,,0.00,Wunderground v.1.15,2013-04-07 18:42:00,
2013-04-07 14:48:00,71.5,45.2,29.80,SSW,211,10.0,-999.0,39,0.00,,,0.00,Wunderground v.1.15,2013-04-07 18:48:00,
2013-04-07 14:53:00,71.7,46.7,29.80,WSW,254,9.0,-999.0,41,0.00,,,0.00,Wunderground v.1.15,2013-04-07 18:53:00,
2013-04-07 14:59:00,72.4,46.0,29.80,WNW,289,7.0,-999.0,39,0.00,,,0.00,Wunderground v.1.15,2013-04-07 18:59:00,
2013-04-07 15:04:00,71.7,46.1,29.80,West,271,8.0,-999.0,40,0.00,,,0.00,Wunderground v.1.15,2013-04-07 19:04:00,
2013-04-07 15:09:00,71.0,45.5,29.81,NW,305,8.0,-999.0,40,0.00,,,0.00,Wunderground v.1.15,2013-04-07 19:09:00,
2013-04-07 15:14:00,70.7,45.2,29.80,WNW,294,7.0,-999.0,40,0.00,,,0.00,Wunderground v.1.15,2013-04-07 19:14:00,
2013-04-07 15:20:00,71.3,47.0,29.80,WNW,284,7.0,-999.0,42,0.00,,,0.00,Wunderground v.1.15,2013-04-07 19:20:00,
2013-04-07 15:25:00,72.0,45.7,29.80,SW,227,7.0,-999.0,39,0.00,,,0.00,Wunderground v.1.15,2013-04-07 19:25:00,
2013-04-07 15:30:00,72.6,46.2,29.80,WSW,238,7.0,-999.0,39,0.00,,,0.00,Wunderground v.1.15,2013-04-07 19:30:00,
2013-04-07 15:35:00,73.5,46.3,29.80,WNW,284,7.0,-999.0,38,0.00,,,0.00,Wunderground v.1.15,2013-04-07 19:35:00,
2013-04-07 15:40:00,73.8,45.2,29.80,West,274,8.0,-999.0,36,0.00,,,0.00,Wunderground v.1.15,2013-04-07 19:40:00,
2013-04-07 15:46:00,73.1,45.3,29.80,WNW,283,9.0,-999.0,37,0.00,,,0.00,Wunderground v.1.15,2013-04-07 19:46:00,
2013-04-07 15:52:00,73.1,44.5,29.80,WSW,254,9.0,-999.0,36,0.00,,,0.00,Wunderground v.1.15,2013-04-07 19:52:00,
2013-04-07 15:58:00,72.9,44.4,29.80,West,267,11.0,-999.0,36,0.00,,,0.00,Wunderground v.1.15,2013-04-07 19:58:00,
2013-04-07 16:03:00,72.5,45.4,29.80,SW,233,10.0,-999.0,38,0.00,,,0.00,Wunderground v.1.15,2013-04-07 20:03:00,
2013-04-07 16:10:00,72.0,45.0,29.80,SW,224,8.0,-999.0,38,0.00,,,0.00,Wunderground v.1.15,2013-04-07 20:10:00,
2013-04-07 16:15:00,72.0,45.0,29.80,West,271,7.0,-999.0,38,0.00,,,0.00,Wunderground v.1.15,2013-04-07 20:15:00,
2013-04-07 16:21:00,71.9,44.2,29.81,WSW,258,8.0,-999.0,37,0.00,,,0.00,Wunderground v.1.15,2013-04-07 20:21:00,
2013-04-07 16:26:00,71.4,45.1,29.81,West,277,9.0,-999.0,39,0.00,,,0.00,Wunderground v.1.15,2013-04-07 20:26:00,
2013-04-07 16:32:00,71.2,44.3,29.81,West,275,7.0,-999.0,38,0.00,,,0.00,Wunderground v.1.15,2013-04-07 20:32:00,
2013-04-07 16:38:00,70.9,43.3,29.81,West,274,7.0,-999.0,37,0.00,,,0.00,Wunderground v.1.15,2013-04-07 20:38:00,
2013-04-07 16:44:00,70.6,44.4,29.81,NW,304,7.0,-999.0,39,0.00,,,0.00,Wunderground v.1.15,2013-04-07 20:44:00,
2013-04-07 16:49:00,70.4,45.6,29.81,WSW,238,7.0,-999.0,41,0.00,,,0.00,Wunderground v.1.15,2013-04-07 20:49:00,
2013-04-07 16:56:00,71.5,45.9,29.81,West,275,6.0,-999.0,40,0.00,,,0.00,Wunderground v.1.15,2013-04-07 20:56:00,
2013-04-07 17:02:00,71.7,44.7,29.81,West,274,5.0,-999.0,38,0.00,,,0.00,Wunderground v.1.15,2013-04-07 21:02:00,
2013-04-07 17:07:00,71.2,44.3,29.81,West,269,5.0,-999.0,38,0.00,,,0.00,Wunderground v.1.15,2013-04-07 21:07:00,
2013-04-07 17:12:00,70.9,44.0,29.82,SW,235,7.0,-999.0,38,0.00,,,0.00,Wunderground v.1.15,2013-04-07 21:12:00,
2013-04-07 17:17:00,71.1,44.9,29.82,WSW,254,7.0,-999.0,39,0.00,,,0.00,Wunderground v.1.15,2013-04-07 21:17:00,
2013-04-07 17:23:00,71.1,44.9,29.82,NW,324,6.0,-999.0,39,0.00,,,0.00,Wunderground v.1.15,2013-04-07 21:23:00,
2013-04-07 17:29:00,71.2,45.0,29.82,WSW,246,5.0,-999.0,39,0.00,,,0.00,Wunderground v.1.15,2013-04-07 21:29:00,
2013-04-07 17:35:00,70.9,45.4,29.82,West,263,5.0,-999.0,40,0.00,,,0.00,Wunderground v.1.15,2013-04-07 21:35:00,
2013-04-07 17:40:00,70.4,44.9,29.82,WNW,284,6.0,-999.0,40,0.00,,,0.00,Wunderground v.1.15,2013-04-07 21:40:00,
2013-04-07 17:45:00,70.2,46.6,29.83,WSW,252,7.0,-999.0,43,0.00,,,0.00,Wunderground v.1.15,2013-04-07 21:45:00,
2013-04-07 17:50:00,70.2,46.6,29.83,NW,305,5.0,-999.0,43,0.00,,,0.00,Wunderground v.1.15,2013-04-07 21:50:00,
2013-04-07 17:56:00,70.1,45.9,29.83,West,273,4.0,-999.0,42,0.00,,,0.00,Wunderground v.1.15,2013-04-07 21:56:00,
2013-04-07 18:01:00,69.9,45.1,29.83,WNW,303,5.0,-999.0,41,0.00,,,0.00,Wunderground v.1.15,2013-04-07 22:01:00,
2013-04-07 18:07:00,69.9,45.8,29.83,WSW,248,5.0,-999.0,42,0.00,,,0.00,Wunderground v.1.15,2013-04-07 22:07:00,
2013-04-07 18:13:00,70.1,45.3,29.83,WSW,241,4.0,-999.0,41,0.00,,,0.00,Wunderground v.1.15,2013-04-07 22:13:00,
2013-04-07 18:18:00,70.2,45.4,29.83,WSW,248,4.0,-999.0,41,0.00,,,0.00,Wunderground v.1.15,2013-04-07 22:18:00,
2013-04-07 18:24:00,69.9,45.1,29.83,WNW,282,5.0,-999.0,41,0.00,,,0.00,Wunderground v.1.15,2013-04-07 22:24:00,
2013-04-07 18:29:00,70.0,45.8,29.83,West,279,4.0,-999.0,42,0.00,,,0.00,Wunderground v.1.15,2013-04-07 22:29:00,
2013-04-07 18:34:00,70.2,44.7,29.83,WNW,288,5.0,-999.0,40,0.00,,,0.00,Wunderground v.1.15,2013-04-07 22:34:00,
2013-04-07 18:39:00,70.0,45.2,29.83,SW,229,6.0,-999.0,41,0.00,,,0.00,Wunderground v.1.15,2013-04-07 22:39:00,
2013-04-07 18:44:00,69.7,44.9,29.83,WNW,284,4.0,-999.0,41,0.00,,,0.00,Wunderground v.1.15,2013-04-07 22:44:00,
2013-04-07 18:49:00,69.3,44.6,29.83,SW,232,3.0,-999.0,41,0.00,,,0.00,Wunderground v.1.15,2013-04-07 22:49:00,
2013-04-07 18:55:00,69.1,45.0,29.84,WSW,238,4.0,-999.0,42,0.00,,,0.00,Wunderground v.1.15,2013-04-07 22:55:00,
2013-04-07 19:00:00,69.0,44.9,29.84,WNW,296,5.0,-999.0,42,0.00,,,0.00,Wunderground v.1.15,2013-04-07 23:00:00,
2013-04-07 19:05:00,69.0,44.9,29.84,WNW,282,5.0,-999.0,42,0.00,,,0.00,Wunderground v.1.15,2013-04-07 23:05:00,
2013-04-07 19:11:00,69.1,45.0,29.84,NW,312,4.0,-999.0,42,0.00,,,0.00,Wunderground v.1.15,2013-04-07 23:11:00,
2013-04-07 19:17:00,69.0,44.9,29.85,West,278,4.0,-999.0,42,0.00,,,0.00,Wunderground v.1.15,2013-04-07 23:17:00,
2013-04-07 19:24:00,68.8,44.8,29.85,NW,305,5.0,-999.0,42,0.00,,,0.00,Wunderground v.1.15,2013-04-07 23:24:00,
2013-04-07 19:30:00,68.5,43.2,29.85,NW,312,3.0,-999.0,40,0.00,,,0.00,Wunderground v.1.15,2013-04-07 23:30:00,
2013-04-07 19:35:00,68.3,43.0,29.85,WNW,291,2.0,-999.0,40,0.00,,,0.00,Wunderground v.1.15,2013-04-07 23:35:00,
2013-04-07 19:41:00,67.8,41.9,29.85,NW,308,2.0,-999.0,39,0.00,,,0.00,Wunderground v.1.15,2013-04-07 23:41:00,
2013-04-07 19:47:00,67.5,41.7,29.85,NW,311,2.0,-999.0,39,0.00,,,0.00,Wunderground v.1.15,2013-04-07 23:47:00,
2013-04-07 19:53:00,67.1,42.0,29.85,WNW,301,3.0,-999.0,40,0.00,,,0.00,Wunderground v.1.15,2013-04-07 23:53:00,
2013-04-07 19:58:00,66.6,42.2,29.86,WNW,300,2.0,-999.0,41,0.00,,,0.00,Wunderground v.1.15,2013-04-07 23:58:00,
2013-04-07 20:03:00,66.1,41.7,29.86,WNW,302,1.0,-999.0,41,0.00,,,0.00,Wunderground v.1.15,2013-04-08 00:03:00,
2013-04-07 20:09:00,65.6,41.9,29.86,NW,307,1.0,-999.0,42,0.00,,,0.00,Wunderground v.1.15,2013-04-08 00:09:00,
2013-04-07 20:14:00,65.1,42.0,29.86,NNE,12,0.0,-999.0,43,0.00,,,0.00,Wunderground v.1.15,2013-04-08 00:14:00,
2013-04-07 20:19:00,64.6,41.6,29.86,NNW,339,0.0,-999.0,43,0.00,,,0.00,Wunderground v.1.15,2013-04-08 00:19:00,
2013-04-07 20:25:00,64.0,41.6,29.87,NNW,339,0.0,-999.0,44,0.00,,,0.00,Wunderground v.1.15,2013-04-08 00:25:00,
2013-04-07 20:30:00,63.4,41.1,29.87,North,360,0.0,-999.0,44,0.00,,,0.00,Wunderground v.1.15,2013-04-08 00:30:00,
2013-04-07 20:36:00,63.3,41.0,29.88,NW,316,1.0,-999.0,44,0.00,,,0.00,Wunderground v.1.15,2013-04-08 00:36:00,
2013-04-07 20:41:00,63.2,41.5,29.88,NW,317,1.0,-999.0,45,0.00,,,0.00,Wunderground v.1.15,2013-04-08 00:41:00,
2013-04-07 20:47:00,62.8,41.7,29.88,NNE,22,0.0,-999.0,46,0.00,,,0.00,Wunderground v.1.15,2013-04-08 00:47:00,
2013-04-07 20:52:00,62.2,42.8,29.89,NNE,17,3.0,-999.0,49,0.00,,,0.00,Wunderground v.1.15,2013-04-08 00:52:00,
2013-04-07 20:59:00,61.3,43.5,29.89,North,9,2.0,-999.0,52,0.00,,,0.00,Wunderground v.1.15,2013-04-08 00:59:00,
2013-04-07 21:04:00,60.4,43.7,29.89,NNE,26,3.0,-999.0,54,0.00,,,0.00,Wunderground v.1.15,2013-04-08 01:04:00,
2013-04-07 21:09:00,59.7,43.5,29.90,NNE,15,4.0,-999.0,55,0.00,,,0.00,Wunderground v.1.15,2013-04-08 01:09:00,
2013-04-07 21:15:00,58.9,43.7,29.90,NNE,21,1.0,-999.0,57,0.00,,,0.00,Wunderground v.1.15,2013-04-08 01:15:00,
2013-04-07 21:21:00,58.2,43.5,29.90,NNE,21,1.0,-999.0,58,0.00,,,0.00,Wunderground v.1.15,2013-04-08 01:21:00,
2013-04-07 21:27:00,57.6,43.8,29.90,NNE,21,1.0,-999.0,60,0.00,,,0.00,Wunderground v.1.15,2013-04-08 01:27:00,
2013-04-07 21:32:00,57.2,43.4,29.91,NNE,21,1.0,-999.0,60,0.00,,,0.00,Wunderground v.1.15,2013-04-08 01:32:00,
2013-04-07 21:38:00,56.8,43.5,29.91,NNE,21,1.0,-999.0,61,0.00,,,0.00,Wunderground v.1.15,2013-04-08 01:38:00,
2013-04-07 21:44:00,56.5,43.6,29.92,NNE,21,1.0,-999.0,62,0.00,,,0.00,Wunderground v.1.15,2013-04-08 01:44:00,
2013-04-07 21:49:00,56.4,43.5,29.92,ENE,70,1.0,-999.0,62,0.00,,,0.00,Wunderground v.1.15,2013-04-08 01:49:00,
2013-04-07 21:54:00,56.7,43.8,29.92,ENE,58,2.0,-999.0,62,0.00,,,0.00,Wunderground v.1.15,2013-04-08 01:54:00,
2013-04-07 22:00:00,56.7,43.4,29.92,ENE,76,3.0,-999.0,61,0.00,,,0.00,Wunderground v.1.15,2013-04-08 02:00:00,
2013-04-07 22:06:00,56.6,43.3,29.92,NE,49,3.0,-999.0,61,0.00,,,0.00,Wunderground v.1.15,2013-04-08 02:06:00,
2013-04-07 22:11:00,56.4,43.5,29.92,ENE,60,2.0,-999.0,62,0.00,,,0.00,Wunderground v.1.15,2013-04-08 02:11:00,
2013-04-07 22:17:00,56.0,42.7,29.92,East,80,1.0,-999.0,61,0.00,,,0.00,Wunderground v.1.15,2013-04-08 02:17:00,
2013-04-07 22:22:00,55.7,42.9,29.93,ENE,76,1.0,-999.0,62,0.00,,,0.00,Wunderground v.1.15,2013-04-08 02:22:00,
2013-04-07 22:28:00,55.4,42.6,29.93,ENE,76,0.0,-999.0,62,0.00,,,0.00,Wunderground v.1.15,2013-04-08 02:28:00,
2013-04-07 22:34:00,55.2,42.4,29.93,ENE,76,0.0,-999.0,62,0.00,,,0.00,Wunderground v.1.15,2013-04-08 02:34:00,
2013-04-07 22:40:00,54.9,42.5,29.93,ENE,76,1.0,-999.0,63,0.00,,,0.00,Wunderground v.1.15,2013-04-08 02:40:00,
2013-04-07 22:46:00,54.5,42.2,29.93,ENE,76,0.0,-999.0,63,0.00,,,0.00,Wunderground v.1.15,2013-04-08 02:46:00,
2013-04-07 22:51:00,54.2,42.3,29.92,ENE,76,0.0,-999.0,64,0.00,,,0.00,Wunderground v.1.15,2013-04-08 02:51:00,
2013-04-07 22:56:00,53.9,42.0,29.93,ENE,76,0.0,-999.0,64,0.00,,,0.00,Wunderground v.1.15,2013-04-08 02:56:00,
2013-04-07 23:01:00,53.5,42.0,29.92,ENE,76,0.0,-999.0,65,0.00,,,0.00,Wunderground v.1.15,2013-04-08 03:01:00,
2013-04-07 23:07:00,53.0,41.5,29.92,ENE,76,0.0,-999.0,65,0.00,,,0.00,Wunderground v.1.15,2013-04-08 03:07:00,
2013-04-07 23:13:00,52.7,41.7,29.92,ENE,76,0.0,-999.0,66,0.00,,,0.00,Wunderground v.1.15,2013-04-08 03:13:00,
2013-04-07 23:18:00,52.4,41.4,29.92,ENE,76,0.0,-999.0,66,0.00,,,0.00,Wunderground v.1.15,2013-04-08 03:18:00,
2013-04-07 23:24:00,52.1,41.5,29.93,ENE,76,0.0,-999.0,67,0.00,,,0.00,Wunderground v.1.15,2013-04-08 03:24:00,
2013-04-07 23:29:00,51.9,41.3,29.93,ENE,76,0.0,-999.0,67,0.00,,,0.00,Wunderground v.1.15,2013-04-08 03:29:00,
2013-04-07 23:36:00,51.7,41.1,29.93,ENE,76,0.0,-999.0,67,0.00,,,0.00,Wunderground v.1.15,2013-04-08 03:36:00,
2013-04-07 23:41:00,51.5,40.9,29.93,ENE,76,0.0,-999.0,67,0.00,,,0.00,Wunderground v.1.15,2013-04-08 03:41:00,
2013-04-07 23:47:00,51.3,41.1,29.93,ENE,76,0.0,-999.0,68,0.00,,,0.00,Wunderground v.1.15,2013-04-08 03:47:00,
2013-04-07 23:52:00,50.8,41.0,29.93,ENE,76,0.0,-999.0,69,0.00,,,0.00,Wunderground v.1.15,2013-04-08 03:52:00,
2013-04-07 23:57:00,50.5,40.7,29.93,ENE,76,0.0,-999.0,69,0.00,,,0.00,Wunderground v.1.15,2013-04-08 03:57:00,